Погода в Риге

Погода в Риге : погода сейчас, прогноз погоды и архив. Всё, что Вы хотите узнать о погоде в Риге!

Поиск расширенной информации на нашем сайте:

Другие новости

Новости СМИ2

Главная страница сайта

Новости сайта

03.07.2017

Напоминаем, что на нашем специализированном сайте Метеоцентр.Азия вы можете получить высокодетализированные автоматические прогнозы погоды по пунктам России, СНГ и мира в авиационном формате (включающие направление и скорость ветра, видимость, явления погоды, количество и форму облачности, нижнюю и верхнюю границу облачности).


Погода в Риге - сегодня

Время (UTC), дата Ветер
(°,м/с) 
Видим.   Явления Облачность Т
(°С)
Тd
(°С)
f(%) Тe
(°С)
Pmin
(гПа)
dP
(гПа)
Po
(мм)
O2
(г/м3)
Тmin Tmax R s Состояние
почвы
00 16.02.18 130 (ЮВ) 10 км    10/0 
[Sc]
-5.1 -7.4 84 -7  1025  -0.7  765  315           
03 16.02.18 130 (ЮВ) 10 км    8/0 верхняя 
[Cs]
-6.9 -8.9 86 -10  1023.9  -1.1  767  317           
06 16.02.18 120 (ЮВ) 10 км    8/0 средняя, верхняя 
[Ac und|Cs]
-7.3 -9.2 86 -11  1022.7  -1.2  766  317  -7.4      равномерный
мокрый или
старый снег
100% 
09 16.02.18 110 (В) 4000 м  слаб. ливневой снег  10/0 кучево-дожд. 
[Cb cap]
-5 -6.9 86 -7  1021.9  -0.8  766  314           
12 16.02.18 130 (ЮВ) 4000 м  слаб. ливневой снег  10/0 кучево-дожд. 
[Cb cap]
-3.2 -5.1 87 -5  1020.8  -1  762  311           
15 16.02.18 100 (В) 4000 м  слаб. ливневой снег  10/0 кучево-дожд. 
[Cb cap]
-2.8 -4.6 87 -4  1020.1  -0.7  764  311           
18 16.02.18 110 (В) 2000 м  слаб. ливневой снег  10/0 кучево-дожд. 
[Cb cap]
-3 -4 93 -4  1019.9  -0.2  764  311    -2.7     
21 16.02.18 110 (В) 2000 м  слаб. снег{ливн. осадки}  10/0 средняя 
[Frnb|As op]
-3.1 -4 93 -3  1019.3  -0.6  764  311           
00 17.02.18 130 (ЮВ) 2000 м  слаб. снег{ливн. осадки}  10/0 средняя 
[Frnb|As op]
-3.1 -4 93 -3  1019  -0.3  761  311           
03 17.02.18 тихо ()   2000 м  слаб. снег  10/0 средняя 
[Frnb|As op]
-3.4 -4.3 93 -3  1018.6  -0.4  763  311           
06 17.02.18 330 (СЗ) 4000 м  слаб. снег  10/0 средняя 
[As op]
-3.3 -4.2 93 -3  1018.4  -0.2  763  311  -3.7    0.9  равномерный
сухой снег
100% 
09 17.02.18 350 (С) 4000 м  слаб. снег  10/0 средняя 
[As op]
-1.8 -3.3 89 -1  1018.3  -0.1  763  309           
12 17.02.18 330 (СЗ) 4000 м  слаб. снег  10/0 средняя 
[As op]
-1.9 -3.5 89 -4  1018.6  0.3  761  309           
15 17.02.18 340 (С) 4000 м  слаб. снег  10/0 средняя 
[As op]
-1.7 -3.3 89 -3  1019.1  0.5  764  309           
18 17.02.18 330 (СЗ) 4000 м  слаб. снег  10/0 средняя 
[As op]
-1.9 -3.4 89 -3  1019.6  0.5  764  310    -1  0.8     
21 17.02.18 340 (С) 4000 м  дымка{снег}  10/0 
[St]
-2.9 -4.4 89 -4  1020.4  0.8  765  311           
00 18.02.18 340 (С) 4000 м  слаб. снег  10/0 средняя 
[As op]
-2.6 -4.1 89 -4  1021  0.6  762  311           
03 18.02.18 330 (СЗ) 4000 м  слаб. снег  10/0 средняя 
[As op]
-2.6 -4.4 87 -4  1022  766  311           
06 18.02.18 350 (С) 4000 м  слаб. снег  10/0 средняя 
[As op]
-3.5 -5.4 87 -3  1023.3  1.2  767  313  -3.5    0.7  равномерный
сухой снег
100% 
09 18.02.18 350 (С) 10 км  {снег}  10/0 средняя 
[Sc|Ac und]
-2 -6.3 72 -4  1023.7  0.5  767  311           
12 18.02.18 320 (СЗ) 10 км  {снег}  10/0 средняя 
[Sc|Ac und]
-1.3 -5.8 71 -4  1024  0.3  765  310           
15 18.02.18 тихо ()   4000 м  слаб. ливневой снег  10/0 кучево-дожд., средняя 
[Cb cap|Ac und]
-2.5 -4.3 87 -3  1023.5  -0.5  767  312           
18 18.02.18 120 (ЮВ) 4000 м  дымка{ливн. осадки}  10/0 средняя 
[Sc|Ac und]
-3 -4.5 89 -3  1023.5  -0.1  767  312    -1.1  0.7     
21 18.02.18 260 (З) 4000 м  дымка  ясно 
-5.7 -6.7 93 -5  1023.5  767  316           
00 19.02.18 200 (Ю) 4000 м  дымка  10/0 
[St]
-4.1 -5.3 91 -5  1023.1  -0.4  764  313           
Время (UTC), дата Ветер
(°,м/с) 
Видим.   Явления Облачность Т
(°С)
Тd
(°С)
f(%) Тe
(°С)
Pmin
(гПа)
dP
(гПа)
Po
(мм)
O2
(г/м3)
Тmin Tmax R s Состояние
почвы

Для получения пояснительной информации подведите курсор к названию столбца.

ПОГОДА в Риге - архив

Всё, что Вы хотите узнать о погоде в Риге - удобно и подробно!

Выберите нужную дату (начиная с 1 января 2015* года) и нажмите кнопку "Найти".
Будут отображены архивные сводки погоды по пункту Рига, начиная с указанной даты.


Отображать данные в формате CSV (для использования в таблицах Excel)


Внимание! Наш архив погоды предназначен исключительно для личного некоммерческого использования в познавательных целях. Если Вам необходимы официальные справки о состоянии погоды (для производственных, юридических, коммерческих и т.п. целей), обращайтесь в органы Росгидромета.

*Примечание: данная дата относится к архиву по метеостанциям СССР (Россия, СНГ, Балтия).
Архив по метеостанциям Зарубежной Европы и Азии (кроме Китая) хранится 10 дней, по другим регионам земного шара (Китай, Африка, Америка, Австралия, Океания) - 1 день.

Рига - район местоположения метеостанции


Название, широта, долгота, высота метеостанции:
Рига 57°ш. 24.1°д. 7 м над ур. моря [Латвия]

Дополнительная информация

В oтличие oт бoльшинства пoгoдных сайтoв мы публикуем пoдрoбную метеoинфoрмацию в детальнoм прoфессиoнальнoм фoрмате.

Характеристики температуры и влажнoсти вoздуха измеряются на высoте 2 м в тени вдали oт зданий и деревьев.
Скoрoсть ветра измеряется на высoте 10 м (на урoвне рoста челoвека скoрoсть ветра ниже в 1.5-2 раза). Если метеoстанция нахoдится в гoрoде или в лесу, тo скoрoсть ветра занижена на 2-4 м/с пo сравнению с oткрытым местoм. Скoрoсть ветра над акватoриями крупных рек и oзёр, а также на вершинах хoлмoв на 2-5 м/с выше, чем в oбычных услoвиях.
Атмoсфернoе давление в разных тoчках местнoсти мoжет значительнo oтличаться oт давления на метеoстанции, в зависимoсти oт услoвий рельефа (при пoдъёме на 10 м давление пoнижается примернo на 1 мм рт.ст.).